Regional Weather Roundup
Issued by NWS Albany, NY

Home | Current Version | Previous Version | Text Only | Print | Product List | Glossary On
Versions: 1 2 3 4 5 6 7 8 9 10 11 12 13 14 15 16 17 18 19 20 21 22 23 24 25 26 27 28 29 30 31 32 33 34 35 36 37 38 39 40 41 42 43 44 45 46 47 48 49 50
000
ASUS41 KALY 310710
RWRALY

NEW YORK STATE HOURLY WEATHER ROUNDUP
NATIONAL WEATHER SERVICE ALBANY NY
300 AM EDT FRI JUL 31 2015

NOTE: "FAIR" INDICATES FEW OR NO CLOUDS BELOW 12,000 FEET WITH NO
SIGNIFICANT WEATHER AND/OR NO OBSTRUCTIONS TO VISIBILITY.

NYZ032-033-038>043-046>054-057>066-NYZ062>081-310800-
EAST


CITY           SKY/WX    TMP DP  RH WIND       PRES   REMARKS
ALBANY         PTCLDY    66  61  84 SW3       29.82S
GLENS FALLS    CLEAR     62  59  90 CALM      29.80S
POUGHKEEPSIE   CLEAR     67  64  90 CALM      29.83S FOG
NEWBURGH       PTCLDY    66  64  94 W5        29.86F
MONTGOMERY     CLEAR     64  63  96 CALM      29.85F
WHITE PLAINS   CLEAR     73  70  90 NW7       29.84S
ISLIP          CLEAR     72  71  97 NW6       29.80S
NEW YORK CITY  PTCLDY    76  72  87 NW8       29.82F
CENTRAL PARK   CLEAR     76  71  85 CALM      29.86F HAZE
$$

NYZ005>009-017-018-044>046-055-056-310800-
CENTRAL


CITY           SKY/WX    TMP DP  RH WIND       PRES   REMARKS
FULTON         CLEAR     67  61  81 SW7       29.83S
SYRACUSE       PTCLDY    71  61  70 SW10      29.82F
ROME           CLEAR     62  60  93 CALM      29.84F
ELMIRA         CLEAR     61  59  93 W3        29.89F
BINGHAMTON     CLEAR     63  55  75 SW6       29.91S
MONTICELLO     CLEAR     63  59  88 W5        29.91S
$$

NYZ026>034-041>043-310800-
NORTH


CITY           SKY/WX    TMP DP  RH WIND       PRES   REMARKS
WATERTOWN      MOCLDY    68  64  87 SW6       29.80R
FORT DRUM      NOT AVBL
MASSENA        CLEAR     67  55  65 SW7       29.74F
SARANAC LAKE   PTCLDY    62  55  77 SW7       29.80S
PLATTSBURGH    CLEAR     63  59  87 S5        29.73S
$$

NYZ001>004-010>016-019>021-310800-
WEST


CITY           SKY/WX    TMP DP  RH WIND       PRES   REMARKS
NIAGARA FALLS  CLEAR     68  59  73 NW7       29.88S
BUFFALO        CLEAR     71  59  65 NW8       29.89R
DUNKIRK        CLEAR     70  65  84 SW5       29.91S
JAMESTOWN      CLEAR     66  57  72 W9        29.97R
WELLSVILLE     CLEAR     64  56  75 MISG      29.97F
ROCHESTER      PTCLDY    65  62  90 W5        29.86S
PENN YAN       CLEAR     66  59  78 S6        29.88F
$$

             KEY
       WCI = WIND CHILL INDEX
       VSB = VISIBILITY
       HX  = HEAT INDEX
$$


USA.gov is the U.S. government's official web portal to all federal, state and local government web resources and services.